[[{"header":{"parameterUnit":"m.s-1","parameterCategory":1,"la1":30.2991,"la2":30.254,"lo1":-89.0895,"lo2":-89.0444,"dy":0.0017,"dx":0.0017,"nx":28,"ny":28,"refTime":"2025-03-20T03:00:00:Z","depth":0,"parameterNumber":2,"parameterNumberName":"U-component_of_WINDS"},"data":[0,0,0,0,0,0,0,0,0,0,0,0,0,0,0,0,0,0,0,0,0,0,0,0,0,0,0,0,0,0,0,0,0,0,0,0,0,0,0,0,0,0,0,0,0,0,0,0,0,0,0,0,0,0,0,0,0,0,4.5906,4.5907,0,4.602,4.6022,4.6023,4.6066,4.6066,4.6065,4.6065,4.6185,4.6189,4.6192,0,0,0,0,0,0,0,0,0,0,0,0,0,4.5729,4.5732,4.5906,4.5907,4.5908,4.602,4.6022,4.6023,4.6066,4.6066,4.6065,4.6065,4.6184,4.6188,4.6192,0,0,0,0,0,0,0,0,0,0,0,0,0,4.5821,4.5733,4.5905,4.5943,4.5948,4.602,4.6022,4.6024,4.6066,4.6066,4.6065,4.6065,4.6183,4.6188,4.6193,4.6237,0,0,4.6209,4.6212,0,0,0,0,0,0,0,0,4.5816,4.5827,4.5936,4.5941,4.5946,4.6028,4.6004,4.6095,4.6066,4.6021,4.6065,4.6064,4.6134,4.6143,4.6166,4.6242,4.6247,4.621,4.6213,4.6215,4.6217,0,0,0,0,0,0,0,4.5809,4.5823,4.5951,4.5938,4.5944,4.5956,4.5969,4.6021,4.6079,4.6025,4.6029,4.6041,4.6136,4.616,4.6169,4.6249,4.621,4.6214,4.6218,4.622,4.637,4.6371,0,0,0,0,0,0,4.5796,4.5817,4.5947,4.5955,4.5878,4.596,4.5974,4.6002,4.6079,4.609,4.6042,4.6043,4.6152,4.6163,4.6173,4.6231,4.6215,4.622,4.6223,4.637,4.6371,4.6371,0,0,0,0,0,0,4.5792,4.5807,4.5943,4.5887,4.5905,4.5963,4.5995,4.6005,4.6029,4.6091,4.6102,4.6056,4.6152,4.6166,4.6221,4.6235,4.6223,4.6227,4.6369,4.637,4.6371,4.6345,0,0,0,0,0,0,4.5787,4.5805,4.5821,4.5887,4.5908,4.5987,4.5996,4.6008,4.6038,4.6041,4.6107,4.6118,4.6152,4.6213,4.6226,4.6242,4.6232,4.6368,4.6369,4.6371,4.6345,4.6345,4.6345,0,0,0,0,0,4.578,4.5809,4.5822,4.5837,4.5928,4.5988,4.6,4.6038,4.6039,4.6056,4.6097,4.6115,4.6232,4.6218,4.6234,4.6252,4.6367,4.6369,4.637,4.6344,4.6345,4.6345,0,0,0,0,0,0,4.5744,4.5818,4.5833,4.5884,4.5929,4.5995,4.6017,4.6037,4.6084,4.6085,4.6132,4.6146,4.6198,4.6231,4.6214,4.6299,4.6301,4.6306,4.6276,4.6277,4.6277,4.6268,4.6236,0,0,0,0,0,4.5742,4.5782,4.5846,4.5885,4.5907,4.5958,4.5985,4.6011,4.6061,4.608,4.6124,4.6172,4.622,4.625,4.6298,4.635,4.6366,4.6371,4.6371,4.6371,4.6374,4.6407,4.641,4.6378,4.6378,4.6377,0,0,4.5738,4.5784,4.5806,4.5879,4.5917,4.5959,4.5974,4.6018,4.605,4.6087,4.6142,4.6176,4.6233,4.6288,4.6314,4.6317,4.6387,4.6373,4.6373,4.6376,4.6409,4.6412,4.6414,4.6379,4.6379,4.6378,0,0,4.5753,4.5791,4.5828,4.5866,4.5924,4.5958,4.5967,4.6031,4.6055,4.6111,4.614,4.618,4.6261,4.6301,4.6332,4.6365,4.6385,4.6379,4.638,4.6411,4.6414,4.6416,4.6429,4.6433,4.6383,4.6383,4.6383,0,4.5741,4.5804,4.5845,4.5888,4.592,4.5955,4.5994,4.603,4.61,4.6122,4.6124,4.6228,4.6268,4.6334,4.6342,4.6365,4.6379,4.6371,4.641,4.6413,4.6416,4.6429,4.6433,4.6382,4.6382,4.6382,4.6382,0,4.5788,4.5832,4.5855,4.5922,4.5957,4.5997,4.6046,4.6077,4.6101,4.6136,4.6194,4.6244,4.6303,4.6321,4.6345,4.6391,4.639,4.6401,4.6403,4.6417,4.643,4.6435,4.638,4.638,4.6381,4.6381,0,0,4.578,4.5871,4.5879,4.591,4.5978,4.6013,4.6057,4.6114,4.614,4.6189,4.6228,4.6297,4.6307,4.6342,4.6371,4.6399,4.6423,4.6406,4.6408,4.6408,4.6479,4.647,4.6475,4.6437,4.6438,4.6439,4.6474,0,4.5804,4.5882,4.5921,4.5983,4.6026,4.6062,4.61,4.6147,4.6182,4.6224,4.6263,4.6311,4.6321,4.6343,4.6371,4.6414,4.6438,4.6412,4.6475,4.6477,4.6459,4.6481,4.6472,4.6502,4.6479,4.648,4.6481,0,4.5842,4.5889,4.5955,4.6019,4.6039,4.6072,4.6129,4.6169,4.6224,4.6248,4.6288,4.6317,4.6367,4.6366,4.6437,4.6418,4.6447,4.6472,4.6474,4.6481,4.6479,4.6489,4.6513,4.6517,4.6489,4.6488,4.6488,0,4.5831,4.5912,4.5962,4.5988,4.6064,4.6087,4.612,4.6174,4.6207,4.6258,4.628,4.6335,4.6366,4.641,4.6454,4.6449,4.652,4.6523,4.6542,4.6541,4.6555,4.6553,4.6583,4.6574,4.6573,4.6573,4.6573,0,4.5853,4.5892,4.5958,4.5989,4.6035,4.6081,4.6125,4.6162,4.621,4.625,4.6285,4.6323,4.6379,4.6424,4.6459,4.6512,4.6526,4.6548,4.6556,4.6544,4.6541,4.6563,4.6562,4.6575,4.6574,4.6574,4.6574,0,4.5848,4.5893,4.5951,4.6019,4.6037,4.6068,4.6127,4.6159,4.6197,4.6247,4.6262,4.6321,4.6376,4.6424,4.6497,4.6521,4.6576,4.6587,4.6557,4.6562,4.6578,4.6576,4.6623,4.6632,4.6616,4.6616,4.6616,0,4.5858,4.5889,4.5961,4.599,4.6022,4.6068,4.6102,4.615,4.6184,4.625,4.6275,4.6332,4.6381,4.6467,4.6518,4.6574,4.6587,4.66,4.6596,4.6583,4.6588,4.6585,4.6589,4.6599,4.6599,4.6599,4.6599,0,4.5873,4.5895,4.5941,4.5996,4.6035,4.6081,4.6128,4.615,4.6207,4.6244,4.63,4.6338,4.6413,4.647,4.6533,4.6569,4.6594,4.66,4.6608,4.6595,4.6577,4.6587,4.6557,4.6598,4.6598,4.6599,4.6599,4.6599,4.5877,4.5907,4.5962,4.6013,4.6054,4.6097,4.6132,4.6174,4.6221,4.6285,4.6311,4.6369,4.6426,4.6512,4.6549,4.6596,4.66,4.6611,4.6614,4.6615,4.6614,4.6569,4.6608,4.6608,4.6608,4.6608,4.6608,0,4.5894,4.5932,4.5978,4.6043,4.6084,4.6104,4.6157,4.6191,4.6241,4.6291,4.6338,4.6404,4.6461,4.6516,4.6576,4.6603,4.6616,4.6617,4.6616,4.6624,4.6606,4.6594,4.6606,4.6606,4.6606,4.6606,4.6606,4.6606,4.5908,4.5959,4.5988,4.6061,4.6099,4.6155,4.6184,4.6226,4.6266,4.6338,4.6385,4.642,4.6474,4.6538,4.6592,4.6607,4.6627,4.6625,4.6643,4.6625,4.6625,4.6624,4.6613,4.6629,4.6629,4.6657,4.6658,4.6658]},{"header":{"parameterUnit":"m.s-1","parameterCategory":1,"la1":30.2991,"la2":30.254,"lo1":-89.0895,"lo2":-89.0444,"dy":0.0017,"dx":0.0017,"nx":28,"ny":28,"refTime":"2025-03-20T03:00:00:Z","depth":0,"parameterNumber":3,"parameterNumberName":"V-component_of_WINDS"},"data":[0,0,0,0,0,0,0,0,0,0,0,0,0,0,0,0,0,0,0,0,0,0,0,0,0,0,0,0,0,0,0,0,0,0,0,0,0,0,0,0,0,0,0,0,0,0,0,0,0,0,0,0,0,0,0,0,0,0,2.2184,2.2187,0,2.2483,2.2486,2.2489,2.2575,2.2573,2.2572,2.257,2.2885,2.2895,2.2905,0,0,0,0,0,0,0,0,0,0,0,0,0,2.1697,2.1706,2.2184,2.2188,2.2191,2.2482,2.2486,2.249,2.2575,2.2573,2.2571,2.2569,2.2882,2.2894,2.2905,0,0,0,0,0,0,0,0,0,0,0,0,0,2.1943,2.1708,2.2183,2.2269,2.2279,2.2481,2.2486,2.2491,2.2576,2.2573,2.2571,2.2569,2.2878,2.2892,2.2907,2.3048,0,0,2.2953,2.2959,0,0,0,0,0,0,0,0,2.1929,2.1961,2.2252,2.2263,2.2275,2.2489,2.243,2.2678,2.2576,2.2464,2.257,2.2567,2.2756,2.2781,2.2842,2.3063,2.3077,2.2954,2.2963,2.2969,2.2973,0,0,0,0,0,0,0,2.1912,2.1949,2.2302,2.2257,2.2271,2.2295,2.2327,2.2478,2.262,2.2473,2.248,2.2514,2.2762,2.2828,2.285,2.3081,2.2953,2.2967,2.2976,2.2982,2.3437,2.344,0,0,0,0,0,0,2.1879,2.1934,2.2293,2.2311,2.2092,2.2306,2.2342,2.2423,2.2619,2.2646,2.2515,2.2517,2.2804,2.2833,2.2862,2.3043,2.2969,2.2983,2.2992,2.3433,2.3437,2.3441,0,0,0,0,0,0,2.1868,2.191,2.2281,2.2125,2.2174,2.2317,2.2407,2.243,2.2496,2.2651,2.2677,2.2556,2.2803,2.2841,2.3001,2.3055,2.299,2.3003,2.343,2.3435,2.3439,2.3404,0,0,0,0,0,0,2.1854,2.1906,2.1959,2.2125,2.2182,2.2413,2.241,2.2438,2.2521,2.2525,2.2696,2.2722,2.2804,2.2979,2.3016,2.3074,2.3015,2.3426,2.3432,2.3437,2.3401,2.3407,2.3412,0,0,0,0,0,2.1836,2.1939,2.1961,2.2004,2.225,2.2415,2.2448,2.2538,2.2524,2.2581,2.268,2.2717,2.3042,2.2994,2.3037,2.3101,2.3423,2.343,2.3437,2.3399,2.3406,2.3412,0,0,0,0,0,0,2.1778,2.1962,2.1989,2.2147,2.2265,2.2429,2.2503,2.2542,2.2668,2.2667,2.2775,2.2813,2.2967,2.305,2.2993,2.3249,2.3234,2.325,2.319,2.3198,2.3203,2.3182,2.3027,0,0,0,0,0,2.1783,2.1898,2.2054,2.2179,2.2236,2.2359,2.2434,2.2493,2.262,2.2671,2.2782,2.2907,2.3038,2.3122,2.3251,2.3412,2.3453,2.3477,2.3483,2.3486,2.35,2.3596,2.3609,2.3464,2.3464,2.3464,0,0,2.1796,2.191,2.1977,2.217,2.2268,2.2389,2.2401,2.2527,2.2619,2.2692,2.285,2.2936,2.3082,2.3245,2.3322,2.3319,2.3549,2.3495,2.3497,2.351,2.3604,2.3618,2.363,2.3469,2.3468,2.3467,0,0,2.1881,2.1978,2.2094,2.2191,2.2338,2.2419,2.2446,2.2606,2.2665,2.2824,2.2882,2.2994,2.3216,2.3319,2.34,2.3524,2.3564,2.3563,2.3593,2.3685,2.3696,2.3707,2.3755,2.3771,2.3576,2.3576,2.3576,0,2.188,2.2061,2.2149,2.2274,2.2358,2.2425,2.2546,2.2637,2.282,2.2878,2.287,2.3152,2.3255,2.3444,2.3474,2.3536,2.3575,2.3546,2.3687,2.3699,2.371,2.3757,2.3775,2.3575,2.3575,2.3575,2.3575,0,2.2054,2.2178,2.2255,2.2427,2.252,2.2641,2.2751,2.2835,2.2885,2.2968,2.3132,2.3258,2.3414,2.3463,2.3514,2.366,2.3654,2.3665,2.3652,2.3722,2.3768,2.3786,2.3574,2.3574,2.3574,2.3574,0,0,2.2114,2.2331,2.2358,2.2438,2.2605,2.2705,2.2831,2.2981,2.3053,2.3176,2.3287,2.3473,2.3485,2.3577,2.364,2.372,2.3815,2.3722,2.3728,2.3738,2.3988,2.3981,2.4001,2.384,2.3844,2.3847,2.3977,0,2.2223,2.2447,2.2531,2.2716,2.2835,2.29,2.3011,2.3127,2.3207,2.3322,2.3412,2.3544,2.3547,2.3604,2.3685,2.3785,2.3867,2.3777,2.3949,2.3954,2.3914,2.4024,2.4018,2.4134,2.3995,2.3999,2.4001,0,2.2381,2.2504,2.2701,2.2854,2.2907,2.3004,2.315,2.3257,2.3391,2.3445,2.3547,2.3605,2.3743,2.3718,2.3912,2.3849,2.3924,2.3984,2.3991,2.4014,2.3984,2.4054,2.4174,2.4192,2.403,2.4027,2.4025,0,2.241,2.2624,2.277,2.2836,2.3018,2.3085,2.3165,2.3296,2.3381,2.3509,2.3566,2.3709,2.3788,2.3899,2.3996,2.3968,2.4182,2.4165,2.4234,2.4232,2.428,2.4276,2.4417,2.4321,2.4321,2.432,2.432,0,2.2526,2.2645,2.2786,2.2876,2.3012,2.3107,2.324,2.3324,2.3441,2.3551,2.3616,2.3719,2.3838,2.3957,2.4034,2.4185,2.4219,2.427,2.4289,2.4266,2.426,2.432,2.4316,2.4325,2.4324,2.4323,2.4322,0,2.2583,2.2681,2.2845,2.3003,2.3045,2.3139,2.3276,2.3368,2.345,2.3589,2.3628,2.3759,2.3903,2.4008,2.4195,2.4246,2.441,2.4427,2.4364,2.4374,2.4439,2.4433,2.4627,2.4659,2.4537,2.4538,2.4539,0,2.2652,2.2745,2.2911,2.2988,2.3067,2.319,2.3277,2.3375,2.3464,2.3623,2.3697,2.3845,2.3968,2.4196,2.431,2.4454,2.4479,2.4537,2.4501,2.4476,2.4485,2.448,2.4492,2.4543,2.4544,2.4544,2.4545,0,2.2766,2.281,2.2931,2.307,2.3171,2.3286,2.3402,2.3462,2.3581,2.3678,2.3824,2.392,2.411,2.4257,2.4412,2.4498,2.4544,2.4554,2.4579,2.4559,2.4519,2.4546,2.4382,2.4551,2.455,2.455,2.4549,2.4549,2.2835,2.2921,2.3052,2.3186,2.3282,2.3389,2.3484,2.3577,2.37,2.386,2.391,2.4063,2.4198,2.441,2.4497,2.4621,2.462,2.4654,2.4664,2.4672,2.4673,2.4495,2.4649,2.4649,2.4649,2.4649,2.4649,0,2.2956,2.3043,2.3164,2.3323,2.3429,2.3457,2.3587,2.3675,2.3808,2.3927,2.4047,2.4217,2.436,2.4484,2.4634,2.4709,2.4734,2.4746,2.4744,2.4764,2.4663,2.4628,2.4723,2.4723,2.4723,2.4723,2.4723,2.4723,2.3032,2.318,2.3239,2.3438,2.3525,2.3673,2.3745,2.3845,2.3942,2.4127,2.4245,2.4324,2.4447,2.4606,2.474,2.4774,2.4828,2.4835,2.4874,2.4779,2.477,2.4762,2.473,2.4845,2.4845,2.4966,2.4967,2.4967]}]]